Location: Albuquerque Trailhead
(34.7934°N, 106.3736°W)
Time: 12:05:57
(UTC+00:00)

ATLAS CENTAUR R/B - Pass Details

Date: 20 June 2021
Orbit: 472 x 671 km, 64.6° (Epoch: 13 June)

Event Time Altitude Azimuth Distance (km) Brightness Sun altitude
Rises 04:09:31 0° 345° (NNW) 2,819 6.1 -18.1°
Reaches altitude 10° 04:12:07 10° 0° (N) 1,953 4.8 -18.5°
Maximum altitude 04:15:37 22° 53° (NE) 1,353 3.2 -19.0°
Enters shadow 04:16:58 20° 78° (ENE) 1,472 3.2 -19.2°
